ASTRA 1KR               
1 29055U 06012A   19265.77896572  .00000111  00000-0  00000+0 0  9996
2 29055   0.0687 268.8778 0004745 297.2008  94.9309  1.00268814 49083
ATLAS 5 CENTAUR R/B     
1 29056U 06012B   19265.46631987  .00000113  00000-0  00000+0 0  9992
2 29056  23.3364 111.0392 5428537 129.6645 206.7997  1.96354053 96279